Weather History for KJXN - August, 2013

Change the Weather History Date:

Tuesday, August 13, 2013

  Actual Average Record
Temperature  
Mean Temperature 59 °F 70 °F  
Max Temperature 68 °F 81 °F 94 °F (1978)
Min Temperature 50 °F 60 °F 47 °F (1954)
Degree Days  
Heating Degree Days 6 1  
Month to date heating degree days 14 9  
Since 1 June heating degree days 92 75  
Since 1 July heating degree days 35 20  
Cooling Degree Days 0 6  
Month to date cooling degree days 39 78  
Year to date cooling degree days 438 443  
Since 1 June cooling degree days 371 406  
Growing Degree Days 10 (Base 50)    
Moisture  
Dew Point 51 °F    
Average Humidity 73    
Maximum Humidity 97    
Minimum Humidity 48    
Precipitation  
Precipitation 0.00 in 0.11 in 0.49 in (2004)
Month to date precipitation 2.81 1.49  
Year to date precipitation 22.03 18.94  
Sea Level Pressure  
Sea Level Pressure 29.99 in    
Wind  
Wind Speed 6 mph (NNW)    
Max Wind Speed 14 mph    
Max Gust Speed 22 mph    
Visibility 10 miles    
Events      
T = Trace of Precipitation, MM = Missing Value Source: NWS Daily Summary

Daily Weather History Graph

Daily Weather History Graph

Search for Another Location

Airport or City:

Trip Planner

Search our weather history database for the weather conditions in past years. The results will help you decide how hot, cold, wet, or windy it might be!

Date:

Astronomy

Aug. 13, 2013 Rise Set
Actual Time 6:43 AM EDT 8:41 PM EDT
Civil Twilight 6:12 AM EDT 9:11 PM EDT
Nautical Twilight 5:35 AM EDT 9:48 PM EDT
Astronomical Twilight 4:55 AM EDT 10:28 PM EDT
Moon 1:46 PM EDT (8/13) No Moon Set
Length of Visible Light 14h 58m
Length of Day
13h 57m
Waxing Crescent, 41% of the Moon is Illuminated
Aug 13
Waxing Crescent
Aug 14
First Quarter
Aug 20
Full
Aug 28
Last Quarter
Sep 5
New

Hourly Weather History & Observations

Time (EDT) Temp. Dew Point Humidity Pressure Visibility Wind Dir Wind Speed Gust Speed Precip Events Conditions
12:56 AM 66.0 °F 64.0 °F 93% 29.88 in 7.0 mi WNW 3.5 mph - N/A   Partly Cloudy
1:56 AM 63.0 °F 61.0 °F 93% 29.88 in 10.0 mi NNW 3.5 mph - N/A   Clear
2:56 AM 61.0 °F 59.0 °F 93% 29.88 in 10.0 mi NNW 4.6 mph - N/A   Clear
3:56 AM 60.1 °F 57.0 °F 90% 29.88 in 10.0 mi NNW 6.9 mph - 0.01 in   Clear
4:56 AM 57.9 °F 55.9 °F 93% 29.89 in 10.0 mi Variable 4.6 mph - N/A   Clear
5:56 AM 57.0 °F 54.0 °F 89% 29.92 in 10.0 mi North 5.8 mph - N/A   Clear
6:56 AM 54.0 °F 51.1 °F 90% 29.94 in 10.0 mi NNW 5.8 mph - N/A   Clear
7:56 AM 54.0 °F 51.1 °F 90% 29.96 in 10.0 mi North 8.1 mph - N/A   Clear
8:36 AM 53.6 °F 50.0 °F 88% 29.98 in 10.0 mi North 10.4 mph 16.1 mph N/A   Mostly Cloudy
8:48 AM 53.6 °F 50.0 °F 88% 29.99 in 10.0 mi NNW 6.9 mph - N/A   Mostly Cloudy
8:56 AM 55.0 °F 51.1 °F 86% 29.98 in 10.0 mi NNW 5.8 mph - N/A   Overcast
9:28 AM 53.6 °F 48.2 °F 82% 30.00 in 10.0 mi North 10.4 mph 16.1 mph N/A   Scattered Clouds
9:56 AM 55.9 °F 48.9 °F 77% 30.00 in 10.0 mi Variable 6.9 mph - N/A   Mostly Cloudy
10:18 AM 59.0 °F 51.8 °F 77% 30.00 in 10.0 mi Variable 6.9 mph - N/A   Scattered Clouds
10:56 AM 61.0 °F 51.1 °F 70% 30.00 in 10.0 mi NNW 8.1 mph - N/A   Mostly Cloudy
11:24 AM 62.6 °F 48.2 °F 59% 30.01 in 10.0 mi North 11.5 mph 17.3 mph N/A   Scattered Clouds
11:56 AM 63.0 °F 51.1 °F 65% 30.01 in 10.0 mi Variable 5.8 mph - N/A   Clear
12:56 PM 64.0 °F 48.9 °F 58% 30.02 in 10.0 mi NNW 5.8 mph 16.1 mph N/A   Clear
1:56 PM 64.9 °F 46.9 °F 52% 30.02 in 10.0 mi Variable 6.9 mph 21.9 mph N/A   Mostly Cloudy
2:56 PM 64.0 °F 46.9 °F 54% 30.03 in 10.0 mi North 9.2 mph 17.3 mph N/A   Mostly Cloudy
3:56 PM 63.0 °F 48.0 °F 58% 30.03 in 10.0 mi NNW 8.1 mph - N/A   Mostly Cloudy
4:56 PM 64.9 °F 48.9 °F 56% 30.03 in 10.0 mi NW 5.8 mph - N/A   Mostly Cloudy
5:56 PM 66.9 °F 46.9 °F 49% 30.02 in 10.0 mi NW 10.4 mph 21.9 mph N/A   Scattered Clouds
6:56 PM 64.0 °F 48.0 °F 56% 30.03 in 10.0 mi NNW 10.4 mph 17.3 mph N/A   Scattered Clouds
7:56 PM 62.1 °F 46.9 °F 58% 30.04 in 10.0 mi NW 5.8 mph - N/A   Clear
8:56 PM 57.0 °F 48.9 °F 74% 30.05 in 10.0 mi WNW 3.5 mph - N/A   Scattered Clouds
9:56 PM 55.0 °F 46.9 °F 74% 30.06 in 10.0 mi Calm Calm - N/A   Clear
10:56 PM 53.1 °F 46.9 °F 80% 30.08 in 10.0 mi NNW 3.5 mph - N/A   Clear
11:56 PM 52.0 °F 46.0 °F 80% 30.09 in 10.0 mi Calm Calm - N/A   Partly Cloudy